CW4326 Weather Reports


time (UTC)temp
C
wind
direction
speed
KPH
gust
KPH
rain 1hr
cm
rain 24hr
cm
rain mn
cm
humidity
%
barometer
mb
20260510202105 6 35 0.0 0.0 0.00 0.00 0.00 73 1015.5
20260510201604 6 35 0.0 0.0 0.00 0.00 0.00 73 1015.6
20260510195604 7 35 0.0 0.0 0.00 0.00 0.00 71 1015.8
20260510195104 7 35 0.0 3.2 0.00 0.00 0.00 71 1015.8
20260510193104 7 45 0.0 0.0 0.00 0.00 0.00 69 1016.0
20260510192604 7 45 0.0 0.0 0.00 0.00 0.00 68 1015.9
20260510190605 8 346 0.0 1.6 0.00 0.00 0.00 66 1016.1
20260510190105 8 46 0.0 4.8 0.00 0.00 0.00 65 1016.1
20260510184605 8 340 0.0 8.0 0.00 0.00 0.00 65 1016.2
20260510184105 9 353 1.6 4.8 0.00 0.00 0.00 65 1016.3
20260510183104 9 18 1.6 9.7 0.00 0.00 0.00 67 1016.1
20260510182605 9 6 0.0 4.8 0.00 0.00 0.00 67 1016.1
20260510182104 9 8 0.0 9.7 0.00 0.00 0.00 66 1016.1
20260510181604 9 346 1.6 8.0 0.00 0.00 0.00 65 1016.2
20260510181104 9 16 0.0 4.8 0.00 0.00 0.00 64 1016.2
20260510180605 9 22 0.0 8.0 0.00 0.00 0.00 63 1016.1
20260510174604 10 0 1.6 8.0 0.00 0.00 0.00 62 1016.3
20260510173604 10 331 1.6 4.8 0.00 0.00 0.00 64 1016.4
20260510173104 10 48 0.0 8.0 0.00 0.00 0.00 64 1016.4
20260510172604 10 47 0.0 4.8 0.00 0.00 0.00 64 1016.4
20260510171604 10 32 0.0 4.8 0.00 0.00 0.00 64 1016.6
20260510171105 10 22 0.0 4.8 0.00 0.00 0.00 63 1016.6
20260510170605 10 39 0.0 4.8 0.00 0.00 0.00 64 1016.6
20260510164605 11 52 3.2 9.7 0.00 0.00 0.00 65 1016.8
20260510163104 11 36 1.6 16.1 0.00 0.00 0.00 66 1016.9
20260510162105 10 41 1.6 19.3 0.00 0.00 0.00 65 1016.9
20260510161605 11 49 3.2 14.5 0.00 0.00 0.00 64 1017.1
20260510161104 11 47 1.6 14.5 0.00 0.00 0.00 64 1017.2
20260510153105 11 43 1.6 8.0 0.00 0.00 0.00 64 1017.8
20260510143604 12 33 1.6 16.1 0.00 0.00 0.00 60 1018.3
20260510143104 13 69 1.6 11.3 0.00 0.00 0.00 60 1018.4
20260510142105 13 45 1.6 8.0 0.00 0.00 0.00 60 1018.4
20260510135604 13 53 1.6 11.3 0.00 0.00 0.00 61 1018.6
20260510134604 12 86 1.6 8.0 0.00 0.00 0.00 62 1018.7
20260510133104 13 352 3.2 12.9 0.00 0.00 0.00 65 1018.7
20260510132605 12 49 1.6 16.1 0.00 0.00 0.00 66 1018.7
20260510131604 12 41 3.2 9.7 0.00 0.00 0.00 66 1018.8
20260510131104 12 26 1.6 16.1 0.00 0.00 0.00 66 1018.8
20260510130604 12 5 1.6 12.9 0.00 0.00 0.00 67 1018.9
20260510130104 12 47 3.2 12.9 0.00 0.00 0.00 68 1018.7
20260510125104 12 34 1.6 8.0 0.00 0.00 0.00 68 1018.9
20260510124604 12 22 1.6 14.5 0.00 0.00 0.00 69 1019.0
20260510124104 11 50 0.0 8.0 0.00 0.00 0.00 70 1019.1
20260510122604 12 39 1.6 12.9 0.00 0.00 0.00 69 1019.3
20260510122104 12 51 1.6 11.3 0.00 0.00 0.00 68 1019.3
20260510121604 12 58 3.2 12.9 0.00 0.00 0.00 70 1019.3
20260510115605 12 31 1.6 16.1 0.00 0.00 0.00 70 1019.5
20260510114104 12 27 1.6 11.3 0.00 0.00 0.00 70 1019.5
20260510113605 12 68 3.2 14.5 0.00 0.00 0.00 71 1019.5
20260510112604 12 39 1.6 9.7 0.00 0.00 0.00 70 1019.6
20260510112105 12 16 3.2 11.3 0.00 0.00 0.00 68 1019.7
20260510105604 11 52 1.6 16.1 0.00 0.00 0.00 74 1019.8
20260510104604 11 45 3.2 11.3 0.00 0.00 0.00 74 1019.8
20260510104104 11 22 1.6 11.3 0.00 0.00 0.00 74 1019.9
20260510103604 11 0 0.0 9.7 0.00 0.00 0.00 72 1019.9
20260510102104 12 358 1.6 8.0 0.00 0.00 0.00 74 1019.9
20260510095604 11 72 0.0 12.9 0.00 0.00 0.00 76 1020.0
20260510092604 11 9 3.2 16.1 0.00 0.00 0.00 77 1020.0
20260510090105 11 36 0.0 9.7 0.00 0.00 0.00 79 1020.3
20260510085604 10 24 1.6 11.3 0.00 0.00 0.00 79 1020.3
20260510084604 10 359 1.6 8.0 0.00 0.00 0.00 80 1020.3
20260510083104 10 9 1.6 8.0 0.00 0.00 0.00 82 1020.3
20260510082104 10 78 3.2 12.9 0.00 0.00 0.00 82 1020.3
20260510081605 10 47 1.6 9.7 0.00 0.00 0.00 82 1020.3
20260510081104 10 38 1.6 11.3 0.00 0.00 0.00 82 1020.3
20260510080104 10 45 3.2 12.9 0.00 0.00 0.00 82 1020.4
20260510075605 10 67 3.2 9.7 0.00 0.00 0.00 82 1020.3
20260510075104 10 60 1.6 9.7 0.00 0.00 0.00 82 1020.3
20260510074604 10 31 1.6 8.0 0.00 0.00 0.00 82 1020.2
20260510072106 10 17 1.6 11.3 0.00 0.00 0.00 83 1020.2
20260510071105 10 25 3.2 12.9 0.00 0.00 0.00 82 1020.1
20260510065105 10 359 1.6 9.7 0.00 0.00 0.00 82 1019.9
20260510064104 10 351 0.0 8.0 0.00 0.00 0.00 82 1019.9
20260510063604 10 46 1.6 8.0 0.00 0.00 0.00 82 1019.8
20260510061605 10 47 1.6 9.7 0.00 0.00 0.00 84 1019.6
20260510061104 10 66 1.6 8.0 0.00 0.00 0.00 85 1019.4
20260510055604 10 60 1.6 9.7 0.00 0.00 0.00 87 1019.4
20260510054104 10 357 0.0 8.0 0.00 0.00 0.00 89 1019.3
20260510053604 9 353 0.0 3.2 0.00 0.00 0.00 89 1019.3
20260510052105 9 33 0.0 4.8 0.00 0.00 0.00 90 1019.3
20260510051604 9 32 1.6 9.7 0.00 0.00 0.00 90 1019.3
20260510050604 9 25 0.0 4.8 0.00 0.00 0.00 90 1019.3
20260510050104 9 15 0.0 4.8 0.00 0.00 0.00 90 1019.3
20260510045605 8 47 0.0 4.8 0.00 0.00 0.00 90 1019.5
20260510044604 8 14 0.0 0.0 0.00 0.00 0.00 90 1019.6
20260510043604 8 14 0.0 1.6 0.00 0.00 0.00 90 1019.6
20260510041604 8 4 0.0 0.0 0.00 0.00 0.00 90 1019.7
20260510041104 8 4 0.0 0.0 0.00 0.00 0.00 89 1019.7
20260510034604 8 4 0.0 0.0 0.00 0.00 0.00 89 1019.8
20260510034104 8 4 0.0 0.0 0.00 0.00 0.00 89 1019.8
20260510032104 8 4 0.0 3.2 0.00 0.00 0.00 89 1019.9
20260510030604 8 3 0.0 1.6 0.00 0.00 0.00 89 1020.0
20260510030104 8 3 0.0 1.6 0.00 0.00 0.00 89 1020.0
20260510025104 8 3 0.0 0.0 0.00 0.00 0.00 88 1020.1
20260510024604 8 3 0.0 0.0 0.00 0.00 0.00 88 1020.1
20260510022605 8 4 0.0 1.6 0.00 0.00 0.00 88 1020.1
20260510021604 8 4 0.0 1.6 0.00 0.00 0.00 88 1020.1
20260510020604 8 4 0.0 1.6 0.00 0.00 0.00 87 1020.2
20260510015604 9 4 0.0 1.6 0.00 0.00 0.00 87 1020.2
20260510014604 9 4 0.0 1.6 0.00 0.00 0.00 87 1020.2
20260510013604 9 4 0.0 1.6 0.00 0.00 0.00 87 1020.3
20260510012104 10 4 0.0 1.6 0.00 0.00 0.00 87 1020.1
20260510011605 10 4 0.0 1.6 0.00 0.00 0.00 87 1020.1
20260510010604 10 4 0.0 0.0 0.00 0.00 0.00 87 1020.1
20260510010104 10 4 0.0 1.6 0.00 0.00 0.00 86 1020.0
20260510005105 10 36 0.0 1.6 0.00 0.00 0.00 86 1020.0
20260510004604 10 42 0.0 0.0 0.00 0.00 0.00 86 1020.1
20260510004105 10 42 0.0 3.2 0.00 0.00 0.00 86 1020.1
20260510001604 10 17 0.0 4.8 0.00 0.00 0.00 86 1020.3
20260510001104 11 348 1.6 8.0 0.00 0.00 0.00 86 1020.4
20260509235604 11 355 0.0 1.6 0.00 0.00 0.00 86 1020.6
20260509235104 11 5 0.0 3.2 0.00 0.00 0.00 87 1020.7
20260509234104 11 4 0.0 3.2 0.00 0.00 0.00 87 1020.6
20260509233105 11 20 0.0 1.6 0.00 0.00 0.00 87 1020.6
20260509231604 11 52 0.0 3.2 0.00 0.00 0.00 87 1020.5
20260509230605 11 353 0.0 4.8 0.00 0.00 0.00 87 1020.5
20260509224604 11 37 0.0 1.6 0.00 0.00 0.00 88 1020.4
20260509223605 11 299 0.0 3.2 0.00 0.00 0.00 88 1020.4
20260509223104 11 336 0.0 14.5 0.00 0.00 0.00 88 1020.4
20260509222104 11 13 0.0 1.6 0.00 0.00 0.00 88 1020.3
20260509221605 11 13 0.0 1.6 0.00 0.00 0.00 88 1020.3
20260509220604 11 13 0.0 1.6 0.00 0.00 0.00 88 1020.3
20260509220105 11 12 0.0 1.6 0.00 0.00 0.00 88 1020.3
20260509215605 11 12 0.0 1.6 0.00 0.00 0.00 88 1020.2
20260509215104 11 12 0.0 4.8 0.00 0.00 0.00 88 1020.1
20260509214605 11 12 0.0 4.8 0.00 0.00 0.00 88 1020.2
20260509212104 11 14 0.0 1.6 0.00 0.00 0.00 87 1020.1
20260509211604 11 14 0.0 1.6 0.00 0.00 0.00 87 1020.1
20260509211104 11 14 0.0 0.0 0.00 0.00 0.00 87 1020.3
20260509205605 11 12 0.0 1.6 0.00 0.00 0.00 86 1020.3
20260509205104 11 11 0.0 1.6 0.00 0.00 0.00 86 1020.3
20260509204105 11 31 0.0 1.6 0.00 0.00 0.00 86 1020.2
20260509203104 11 8 0.0 1.6 0.00 0.00 0.00 86 1020.2